Starlink 30769

operational
NORAD ID: 58138 Int'l Des: 2023-162 Owner: SPXS Country: US Constellation: starlink
LEOCIRCULAR

About Starlink 30769

Description loading...

Live Position

Loading 3D Globe...

Upcoming Passes

Altitude History

Altitude vs Time

uPlot chart will show altitude changes over time

Two-Line Element Set

1 58138U 23162W 25303.51158518 .00001068 00000-0 94135-4 0 9997
2 58138 43.0035 120.7876 0001418 267.0854 92.9826 15.02539473112716
Epoch: Oct 30, 2025 • Age: 31 hours

Current Status

Altitude 558.6 km
Velocity 7.59 km/s
Sub-Earth Point 15.79°N, 53.41°W
Launch Date Oct 22, 2023
Age 2 years
Type internet

Technical Details

Classification Payload
Mass 730.00 kg
Dry Mass 700.00 kg
Total Mass 730.00 kg
Length 0.30 m
Diameter 4.10 m
Span 29.00 m
Shape Box + pan
Manufacturer SPXS
Bus Type Starlink V2M
Phase Status In Orbit
Owner/State SPXS/US

Large Constellations

Loading constellations...